| time (UTC) | temp F | wind direction | speed knots | gust knots | rain 1hr in | rain 24hr in | rain mn in | humidity % | barometer mb |
| 20260509011534 | 79 | 135 | 0.9 | 0.9 | 0.00 | 0.00 | 0.01 | 99 | 995.3 |
| 20260509011034 | 78 | 135 | 0.9 | 0.9 | 0.00 | 0.00 | 0.01 | 99 | 994.9 |
| 20260509010534 | 78 | 135 | 0.9 | 0.9 | 0.00 | 0.00 | 0.01 | 99 | 994.9 |
| 20260509005534 | 78 | 113 | 0.0 | 0.0 | 0.00 | 0.00 | 0.01 | 99 | 994.9 |
| 20260508125858 | 89 | 270 | 0.9 | 0.9 | 0.00 | 0.00 | 0.00 | 81 | 992.6 |
| 20260508124858 | 92 | 270 | 0.0 | 0.0 | 0.00 | 0.00 | 0.00 | 75 | 991.9 |
| 20260508123858 | 95 | 225 | 0.0 | 0.0 | 0.00 | 0.00 | 0.00 | 66 | 991.2 |
| 20260508123358 | 95 | 203 | 0.0 | 0.0 | 0.00 | 0.00 | 0.00 | 65 | 991.2 |
| 20260508122358 | 97 | 113 | 0.0 | 0.0 | 0.00 | 0.00 | 0.00 | 63 | 991.2 |
| 20260508121358 | 97 | 90 | 0.0 | 0.0 | 0.00 | 0.00 | 0.00 | 61 | 991.2 |
| 20260508115858 | 99 | 68 | 0.9 | 0.9 | 0.00 | 0.00 | 0.00 | 59 | 990.9 |
| 20260508114858 | 99 | 113 | 0.9 | 0.9 | 0.00 | 0.00 | 0.00 | 59 | 990.9 |
| 20260508113858 | 100 | 158 | 2.6 | 2.6 | 0.00 | 0.00 | 0.00 | 60 | 990.5 |
| 20260508072609 | 102 | 135 | 0.0 | 0.0 | 0.00 | 0.00 | 0.00 | 63 | 993.6 |
| 20260508071609 | 102 | 90 | 0.0 | 0.0 | 0.00 | 0.00 | 0.00 | 62 | 993.9 |
| 20260508065610 | 100 | 113 | 0.9 | 0.9 | 0.00 | 0.00 | 0.00 | 65 | 994.2 |
| 20260508065109 | 99 | 158 | 0.9 | 0.9 | 0.00 | 0.00 | 0.00 | 66 | 994.2 |
| 20260508064109 | 101 | 113 | 0.0 | 0.0 | 0.00 | 0.00 | 0.00 | 64 | 994.6 |
| 20260508042153 | 93 | 113 | 0.9 | 0.9 | 0.00 | 0.00 | 0.00 | 76 | 995.9 |
| 20260508041653 | 93 | 45 | 0.9 | 0.9 | 0.00 | 0.00 | 0.00 | 76 | 995.9 |
| 20260508040153 | 93 | 90 | 0.9 | 0.9 | 0.00 | 0.00 | 0.00 | 77 | 995.9 |
| 20260508035654 | 93 | 23 | 0.9 | 0.9 | 0.00 | 0.00 | 0.00 | 78 | 995.9 |
| 20260508035153 | 92 | 45 | 0.9 | 0.9 | 0.00 | 0.00 | 0.00 | 79 | 995.9 |